This is the latest recevied weather packets stored in our database for station/object DB0OHL. If no packets are shown the sender has not sent any weather packets the latest 10 day(s).
| Time | Temp. | Humidity | Pressure | Rain* | Wind** | Luminosity | Snow |
|---|---|---|---|---|---|---|---|
| 1777886721 | 19.44° C | 76% | 1012.6 hPa | 0 mm | - | - | - |
| 1777886118 | 18.89° C | 76% | 1012.6 hPa | 0 mm | - | - | - |
| 1777885516 | 18.33° C | 79% | 1012.7 hPa | 0 mm | - | - | - |
| 1777884973 | 17.78° C | 82% | 1012.7 hPa | 0 mm | - | - | - |
| 1777884371 | 16.67° C | 83% | 1012.7 hPa | 0 mm | - | - | - |
| 1777883768 | 16.67° C | 84% | 1012.8 hPa | 0 mm | - | - | - |
| 1777883166 | 16.11° C | 85% | 1012.7 hPa | 0 mm | - | - | - |
| 1777882563 | 16.11° C | 85% | 1012.7 hPa | 0 mm | - | - | - |
| 1777881961 | 16.67° C | 83% | 1012.8 hPa | 0 mm | - | - | - |
| 1777881358 | 15.56° C | 85% | 1012.8 hPa | 0 mm | - | - | - |
| 1777880756 | 15.56° C | 87% | 1012.7 hPa | 0 mm | - | - | - |
| 1777880153 | 15° C | 88% | 1012.7 hPa | 0 mm | - | - | - |
| 1777879551 | 15° C | 88% | 1012.7 hPa | 0 mm | - | - | - |
| 1777878948 | 15° C | 88% | 1012.6 hPa | 0 mm | - | - | - |
| 1777878346 | 15° C | 88% | 1012.4 hPa | 0 mm | - | - | - |
| 1777877743 | 14.44° C | 89% | 1012.4 hPa | 0 mm | - | - | - |
| 1777877140 | 14.44° C | 91% | 1012.3 hPa | 0 mm | - | - | - |
| 1777876538 | 13.89° C | 91% | 1012.3 hPa | 0 mm | - | - | - |
| 1777875935 | 13.89° C | 92% | 1012.3 hPa | 0 mm | - | - | - |
| 1777875333 | 13.89° C | 92% | 1012.2 hPa | 0 mm | - | - | - |
| 1777874730 | 13.89° C | 92% | 1012.2 hPa | 0 mm | - | - | - |
| 1777874128 | 13.33° C | 92% | 1012.1 hPa | 0 mm | - | - | - |
| 1777873525 | 13.33° C | 92% | 1012 hPa | 0 mm | - | - | - |
| 1777872923 | 13.33° C | 92% | 1012 hPa | 0 mm | - | - | - |
| 1777872320 | 13.33° C | 93% | 1012 hPa | 0 mm | - | - | - |
* Rain latest hour (hover to see other rain measurements)
** Current wind speed in m/s (hover to see current wind gust speed)